Flag for Switzerland Weather past 2 weeks in Oftringen, Aargau, Switzerland

Now
63 °F

Mild.


Feels Like: 63 °F
Forecast: 41 / 69 °F
Wind: 3 mph from Southeast

Location: Wynau

Current Time: May 23, 2015 at 6:42:27 PM

Latest Report: May 23, 2015 at 6:00 PM


Visibility: N/A

Pressure: 30.01 "Hg

Humidity: 49%

Dew point: 43 °F

Location of OftringenLocation

Historic Weather in Oftringen — Graph

°F

Oftringen temperature yesterday

Maximum temperature yesterday: 61 °F (at 3:00 PM)
Minimum temperature yesterday: 42 °F (at 6:00 AM)
Average temperature yesterday: 51 °F

Past Weeks' High & Low Weather Summary

 TemperatureHumidityPressure
High81 °F (May 13, 4:00 PM)100% (May 9, 2:00 AM)30.40 "Hg (May 9, 2:00 AM)
Low42 °F (May 23, 6:00 AM)34% (May 13, 3:00 PM)29.72 "Hg (May 18, 6:00 PM)
Average57 °F74%30.10 "Hg
* Reported May 8 5:00 PM — May 23 5:00 PM, Oftringen, Weather by CustomWeather, © 2015

Note: Actual official high and low records may vary slightly from our data, if they occured in-between our weather recording intervals... More about our weather records

Advertising

Oftringen weather history for previous 24 hours

 ConditionsComfort  
Time TempWeatherWind HumidityBarometerVisibility
5:00 PM
Sat, May 23
64 °FMild.8 mph47%30.01 "HgN/A
4:00 PM64 °FMild.7 mph46%30.01 "HgN/A
3:00 PM63 °FMild.9 mph54%30.02 "HgN/A
2:00 PM62 °FRefreshingly cool.13 mph51%30.03 "HgN/A
1:00 PM61 °FRefreshingly cool.13 mph53%30.04 "HgN/A
12:40 PM62 °FRefreshingly cool.13 mph56%30.04 "HgN/A
12:00 PM60 °FRefreshingly cool.12 mph57%30.06 "HgN/A
11:00 AM57 °FRefreshingly cool.8 mph58%30.07 "HgN/A
10:00 AM53 °FCool.7 mph71%30.09 "HgN/A
9:00 AM50 °FCool.1 mph82%30.10 "HgN/A
8:00 AM45 °FCool.No wind94%30.11 "HgN/A
7:00 AM43 °FQuite cool.No wind98%30.11 "HgN/A
6:00 AM42 °FQuite cool.1 mph96%30.12 "HgN/A
5:00 AM43 °FQuite cool.No wind98%30.11 "HgN/A
4:00 AM42 °FQuite cool.1 mph100%30.14 "HgN/A
3:00 AM44 °FQuite cool.No wind97%30.14 "HgN/A
2:00 AM46 °FCool.No wind97%30.15 "HgN/A
1:00 AM47 °FCool.1 mph95%30.16 "HgN/A
12:00 AM48 °FCool.1 mph94%30.17 "HgN/A
10:00 PM
Fri, May 22
50 °FCool.1 mph87%30.17 "HgN/A
9:00 PM53 °FCool.No wind80%30.16 "HgN/A
8:00 PM56 °FCool.1 mph76%30.15 "HgN/A
7:00 PM58 °FRefreshingly cool.2 mph59%30.15 "HgN/A
6:00 PM58 °FCool.2 mph61%30.15 "HgN/A
Weather by CustomWeather, © 2015

See weather overviewHow to use our weather pages